| time (UTC) | temp C | wind direction | speed KPH | gust KPH | rain 1hr cm | rain 24hr cm | rain mn cm | humidity % | barometer mb |
| 20260903113109 | 23 | 0 | 0.0 | 0.0 | 0.00 | 0.03 | 0.00 | 90 | 1015.4 |
| 20260903112554 | 23 | 0 | 0.0 | 0.0 | 0.00 | 0.03 | 0.00 | 90 | 1015.4 |
| 20260903112054 | 23 | 0 | 0.0 | 0.0 | 0.00 | 0.03 | 0.00 | 90 | 1015.3 |
| 20260903111603 | 23 | 0 | 0.0 | 0.0 | 0.00 | 0.03 | 0.00 | 88 | 1015.3 |
| 20260903111054 | 23 | 0 | 0.0 | 0.0 | 0.00 | 0.03 | 0.00 | 88 | 1015.2 |
| 20260903110554 | 23 | 0 | 0.0 | 0.0 | 0.00 | 0.03 | 0.00 | 88 | 1015.1 |
| 20260903110108 | 23 | 0 | 0.0 | 0.0 | 0.00 | 0.03 | 0.00 | 88 | 1015.0 |
| 20260903105555 | 23 | 0 | 0.0 | 0.0 | 0.00 | 0.03 | 0.00 | 88 | 1014.9 |
| 20260903105055 | 23 | 0 | 0.0 | 0.0 | 0.00 | 0.03 | 0.00 | 87 | 1014.9 |
| 20260903104607 | 23 | 0 | 0.0 | 0.0 | 0.00 | 0.03 | 0.00 | 87 | 1015.0 |
| 20260903104052 | 23 | 0 | 0.0 | 0.0 | 0.00 | 0.03 | 0.00 | 86 | 1014.9 |
| 20260903103554 | 23 | 0 | 0.0 | 0.0 | 0.00 | 0.03 | 0.00 | 86 | 1014.9 |
| 20260903103101 | 24 | 0 | 0.0 | 0.0 | 0.00 | 0.03 | 0.00 | 85 | 1014.9 |
| 20260903102552 | 24 | 0 | 0.0 | 0.0 | 0.00 | 0.03 | 0.00 | 85 | 1014.9 |
| 20260903102054 | 24 | 0 | 0.0 | 0.0 | 0.00 | 0.03 | 0.00 | 87 | 1015.0 |
| 20260903101602 | 23 | 0 | 0.0 | 0.0 | 0.00 | 0.03 | 0.00 | 87 | 1014.9 |
| 20260903101055 | 23 | 0 | 0.0 | 0.0 | 0.00 | 0.03 | 0.00 | 86 | 1014.8 |
| 20260903100557 | 23 | 0 | 0.0 | 0.0 | 0.00 | 0.03 | 0.00 | 86 | 1014.6 |
| 20260903100105 | 23 | 0 | 0.0 | 0.0 | 0.00 | 0.03 | 0.00 | 87 | 1014.7 |
| 20260903095557 | 23 | 0 | 0.0 | 0.0 | 0.00 | 0.03 | 0.00 | 86 | 1014.9 |
| 20260903095057 | 23 | 0 | 0.0 | 0.0 | 0.00 | 0.03 | 0.00 | 86 | 1014.8 |
| 20260903094605 | 23 | 0 | 0.0 | 0.0 | 0.00 | 0.03 | 0.00 | 85 | 1014.8 |
| 20260903094055 | 23 | 0 | 0.0 | 0.0 | 0.00 | 0.03 | 0.00 | 85 | 1014.7 |
| 20260903093556 | 24 | 0 | 0.0 | 0.0 | 0.00 | 0.03 | 0.00 | 86 | 1014.8 |
| 20260903093110 | 24 | 0 | 0.0 | 0.0 | 0.00 | 0.03 | 0.00 | 84 | 1014.8 |
| 20260903092559 | 24 | 0 | 0.0 | 0.0 | 0.00 | 0.03 | 0.00 | 83 | 1014.7 |
| 20260903092056 | 25 | 0 | 0.0 | 0.0 | 0.00 | 0.03 | 0.00 | 83 | 1014.6 |
| 20260903091605 | 25 | 0 | 0.0 | 0.0 | 0.00 | 0.03 | 0.00 | 84 | 1014.7 |
| 20260903091057 | 25 | 0 | 0.0 | 0.0 | 0.00 | 0.03 | 0.00 | 84 | 1014.7 |
| 20260903090557 | 25 | 0 | 0.0 | 0.0 | 0.00 | 0.03 | 0.00 | 83 | 1014.7 |
| 20260903090111 | 25 | 0 | 0.0 | 1.6 | 0.00 | 0.03 | 0.00 | 83 | 1014.7 |
| 20260903085557 | 25 | 0 | 0.0 | 1.6 | 0.00 | 0.03 | 0.00 | 83 | 1014.6 |
| 20260903085056 | 25 | 0 | 0.0 | 1.6 | 0.00 | 0.03 | 0.00 | 83 | 1014.5 |
| 20260903084618 | 25 | 0 | 0.0 | 0.0 | 0.00 | 0.03 | 0.00 | 84 | 1014.5 |
| 20260903084056 | 25 | 0 | 0.0 | 4.8 | 0.00 | 0.03 | 0.00 | 84 | 1014.5 |
| 20260903083558 | 24 | 0 | 0.0 | 4.8 | 0.00 | 0.03 | 0.00 | 85 | 1014.6 |
| 20260903083103 | 24 | 257 | 3.2 | 6.4 | 0.00 | 0.03 | 0.00 | 84 | 1014.7 |
| 20260903082556 | 24 | 257 | 3.2 | 6.4 | 0.00 | 0.03 | 0.00 | 85 | 1014.7 |
| 20260903082059 | 24 | 254 | 6.4 | 6.4 | 0.00 | 0.03 | 0.00 | 84 | 1014.7 |
| 20260903081559 | 25 | 249 | 6.4 | 6.4 | 0.00 | 0.03 | 0.00 | 84 | 1014.6 |
| 20260903081058 | 25 | 240 | 4.8 | 4.8 | 0.00 | 0.03 | 0.00 | 83 | 1014.6 |
| 20260903080557 | 25 | 243 | 0.0 | 4.8 | 0.00 | 0.03 | 0.00 | 81 | 1014.6 |
| 20260903080105 | 25 | 0 | 0.0 | 0.0 | 0.00 | 0.03 | 0.00 | 80 | 1014.6 |
| 20260903075556 | 25 | 0 | 0.0 | 0.0 | 0.00 | 0.03 | 0.00 | 80 | 1014.6 |
| 20260903075056 | 26 | 0 | 0.0 | 0.0 | 0.00 | 0.03 | 0.00 | 79 | 1014.5 |
| 20260903074604 | 26 | 0 | 0.0 | 0.0 | 0.00 | 0.03 | 0.00 | 78 | 1014.4 |
| 20260903074057 | 26 | 0 | 0.0 | 0.0 | 0.00 | 0.03 | 0.00 | 78 | 1014.4 |
| 20260903073558 | 26 | 0 | 0.0 | 0.0 | 0.00 | 0.03 | 0.00 | 78 | 1014.3 |
| 20260903073106 | 26 | 0 | 0.0 | 1.6 | 0.00 | 0.03 | 0.00 | 78 | 1014.4 |
| 20260903072552 | 26 | 0 | 0.0 | 3.2 | 0.00 | 0.03 | 0.00 | 78 | 1014.3 |
| 20260903072057 | 26 | 0 | 0.0 | 3.2 | 0.00 | 0.03 | 0.00 | 77 | 1014.4 |
| 20260903071603 | 26 | 88 | 1.6 | 4.8 | 0.00 | 0.03 | 0.00 | 78 | 1014.4 |
| 20260903071056 | 26 | 74 | 1.6 | 4.8 | 0.00 | 0.03 | 0.00 | 78 | 1014.5 |
| 20260903070556 | 26 | 79 | 3.2 | 4.8 | 0.00 | 0.03 | 0.00 | 79 | 1014.6 |
| 20260903065558 | 26 | 90 | 3.2 | 4.8 | 0.00 | 0.03 | 0.00 | 80 | 1014.6 |
| 20260903065056 | 26 | 84 | 3.2 | 4.8 | 0.00 | 0.03 | 0.00 | 80 | 1014.5 |
| 20260903064600 | 26 | 0 | 0.0 | 3.2 | 0.00 | 0.03 | 0.00 | 80 | 1014.7 |
| 20260903064056 | 26 | 0 | 0.0 | 4.8 | 0.00 | 0.03 | 0.00 | 80 | 1014.4 |
| 20260903063557 | 26 | 101 | 3.2 | 4.8 | 0.00 | 0.03 | 0.00 | 80 | 1014.5 |
| 20260903063106 | 26 | 88 | 3.2 | 6.4 | 0.00 | 0.03 | 0.00 | 80 | 1014.6 |
| 20260903062558 | 26 | 96 | 4.8 | 6.4 | 0.00 | 0.03 | 0.00 | 80 | 1014.7 |
| 20260903062053 | 26 | 86 | 4.8 | 6.4 | 0.00 | 0.03 | 0.00 | 80 | 1014.7 |
| 20260903061605 | 26 | 90 | 3.2 | 4.8 | 0.00 | 0.03 | 0.00 | 80 | 1014.7 |
| 20260903061057 | 26 | 92 | 4.8 | 4.8 | 0.00 | 0.03 | 0.00 | 80 | 1014.8 |
| 20260903060556 | 25 | 94 | 3.2 | 4.8 | 0.00 | 0.03 | 0.00 | 81 | 1014.7 |
| 20260903060106 | 25 | 82 | 3.2 | 4.8 | 0.00 | 0.03 | 0.00 | 81 | 1014.6 |
| 20260903055557 | 25 | 97 | 1.6 | 3.2 | 0.00 | 0.03 | 0.00 | 81 | 1014.8 |
| 20260903055057 | 25 | 106 | 1.6 | 3.2 | 0.00 | 0.03 | 0.00 | 81 | 1014.8 |
| 20260903054558 | 25 | 112 | 0.0 | 3.2 | 0.00 | 0.03 | 0.00 | 81 | 1014.9 |
| 20260903054053 | 25 | 126 | 1.6 | 3.2 | 0.00 | 0.03 | 0.00 | 81 | 1014.7 |
| 20260903053553 | 25 | 135 | 0.0 | 0.0 | 0.00 | 0.03 | 0.00 | 81 | 1014.6 |
| 20260903053101 | 25 | 0 | 0.0 | 1.6 | 0.00 | 0.03 | 0.00 | 81 | 1014.7 |
| 20260903052553 | 25 | 0 | 0.0 | 1.6 | 0.00 | 0.03 | 0.00 | 81 | 1014.5 |
| 20260903052054 | 25 | 146 | 1.6 | 1.6 | 0.00 | 0.03 | 0.00 | 81 | 1014.7 |
| 20260903051609 | 25 | 118 | 1.6 | 3.2 | 0.00 | 0.03 | 0.00 | 81 | 1014.6 |
| 20260903051052 | 25 | 122 | 1.6 | 4.8 | 0.00 | 0.03 | 0.00 | 81 | 1014.5 |
| 20260903050556 | 26 | 110 | 3.2 | 4.8 | 0.00 | 0.03 | 0.00 | 80 | 1014.5 |
| 20260903045555 | 26 | 89 | 3.2 | 6.4 | 0.00 | 0.03 | 0.03 | 79 | 1014.5 |
| 20260903045059 | 26 | 88 | 4.8 | 6.4 | 0.00 | 0.03 | 0.03 | 78 | 1014.3 |
| 20260903044601 | 26 | 77 | 4.8 | 6.4 | 0.00 | 0.03 | 0.03 | 77 | 1014.4 |
| 20260903044058 | 26 | 0 | 0.0 | 4.8 | 0.00 | 0.03 | 0.03 | 77 | 1014.5 |
| 20260903043553 | 26 | 88 | 1.6 | 4.8 | 0.00 | 0.03 | 0.03 | 77 | 1014.5 |
| 20260903043104 | 26 | 0 | 0.0 | 3.2 | 0.00 | 0.03 | 0.03 | 77 | 1014.4 |
| 20260903042557 | 26 | 0 | 1.6 | 3.2 | 0.00 | 0.03 | 0.03 | 77 | 1014.4 |
| 20260903042056 | 26 | 83 | 0.0 | 0.0 | 0.00 | 0.03 | 0.03 | 77 | 1014.5 |
| 20260903041601 | 27 | 0 | 0.0 | 0.0 | 0.00 | 0.03 | 0.03 | 76 | 1014.4 |
| 20260903041056 | 26 | 0 | 0.0 | 0.0 | 0.00 | 0.03 | 0.03 | 76 | 1014.4 |
| 20260903040557 | 26 | 0 | 0.0 | 0.0 | 0.00 | 0.03 | 0.03 | 76 | 1014.5 |
| 20260903040058 | 26 | 0 | 0.0 | 0.0 | 0.00 | 0.03 | 0.03 | 76 | 1014.5 |
| 20260903035555 | 26 | 0 | 0.0 | 0.0 | 0.00 | 0.03 | 0.03 | 76 | 1014.5 |
| 20260903035056 | 27 | 0 | 0.0 | 0.0 | 0.00 | 0.03 | 0.03 | 76 | 1014.5 |
| 20260903034602 | 26 | 0 | 0.0 | 0.0 | 0.00 | 0.03 | 0.03 | 76 | 1014.4 |
| 20260903034057 | 26 | 0 | 0.0 | 0.0 | 0.00 | 0.03 | 0.03 | 76 | 1014.4 |
| 20260903033618 | 26 | 0 | 0.0 | 0.0 | 0.00 | 0.03 | 0.03 | 76 | 1014.5 |
| 20260903033102 | 27 | 0 | 0.0 | 0.0 | 0.00 | 0.03 | 0.03 | 75 | 1014.6 |
| 20260903032556 | 27 | 0 | 0.0 | 0.0 | 0.00 | 0.03 | 0.03 | 74 | 1014.5 |
| 20260903032057 | 27 | 0 | 0.0 | 0.0 | 0.00 | 0.03 | 0.03 | 74 | 1014.5 |
| 20260903031601 | 27 | 0 | 0.0 | 0.0 | 0.00 | 0.03 | 0.03 | 74 | 1014.3 |
| 20260903031056 | 27 | 0 | 0.0 | 0.0 | 0.00 | 0.03 | 0.03 | 74 | 1014.4 |
| 20260903030556 | 27 | 0 | 0.0 | 0.0 | 0.00 | 0.03 | 0.03 | 74 | 1014.5 |
| 20260903030059 | 27 | 0 | 0.0 | 0.0 | 0.00 | 0.03 | 0.03 | 74 | 1014.5 |
| 20260903025553 | 27 | 0 | 0.0 | 0.0 | 0.00 | 0.03 | 0.03 | 74 | 1014.4 |
| 20260903025053 | 27 | 0 | 0.0 | 0.0 | 0.00 | 0.03 | 0.03 | 74 | 1014.6 |
| 20260903024604 | 27 | 0 | 0.0 | 0.0 | 0.00 | 0.03 | 0.03 | 75 | 1014.4 |
| 20260903024052 | 27 | 0 | 0.0 | 0.0 | 0.00 | 0.03 | 0.03 | 75 | 1014.4 |
| 20260903023559 | 27 | 0 | 0.0 | 0.0 | 0.00 | 0.03 | 0.03 | 74 | 1014.5 |
| 20260903023106 | 27 | 0 | 0.0 | 0.0 | 0.00 | 0.03 | 0.03 | 74 | 1014.5 |
| 20260903022556 | 27 | 0 | 0.0 | 0.0 | 0.00 | 0.03 | 0.03 | 74 | 1014.5 |
| 20260903022059 | 27 | 0 | 0.0 | 0.0 | 0.00 | 0.03 | 0.03 | 74 | 1014.4 |
| 20260903021602 | 27 | 0 | 0.0 | 0.0 | 0.00 | 0.03 | 0.03 | 73 | 1014.3 |
| 20260903021055 | 27 | 0 | 0.0 | 0.0 | 0.00 | 0.03 | 0.03 | 72 | 1014.3 |
| 20260903020556 | 27 | 0 | 0.0 | 0.0 | 0.00 | 0.03 | 0.03 | 72 | 1014.4 |
| 20260903020101 | 27 | 0 | 0.0 | 0.0 | 0.00 | 0.03 | 0.03 | 72 | 1014.3 |
| 20260903015553 | 28 | 0 | 0.0 | 1.6 | 0.00 | 0.03 | 0.03 | 72 | 1014.3 |
| 20260903015056 | 28 | 0 | 0.0 | 3.2 | 0.00 | 0.03 | 0.03 | 72 | 1014.1 |
| 20260903014611 | 28 | 0 | 0.0 | 3.2 | 0.00 | 0.03 | 0.03 | 72 | 1014.0 |
| 20260903014056 | 28 | 248 | 3.2 | 3.2 | 0.00 | 0.03 | 0.03 | 71 | 1014.1 |
| 20260903013556 | 28 | 245 | 3.2 | 3.2 | 0.00 | 0.03 | 0.03 | 71 | 1014.0 |
| 20260903013100 | 28 | 232 | 3.2 | 3.2 | 0.00 | 0.03 | 0.03 | 71 | 1014.0 |
| 20260903012557 | 28 | 232 | 1.6 | 4.8 | 0.00 | 0.03 | 0.03 | 70 | 1013.9 |
| 20260903012056 | 28 | 217 | 1.6 | 4.8 | 0.00 | 0.03 | 0.03 | 70 | 1013.9 |
| 20260903011600 | 28 | 225 | 3.2 | 4.8 | 0.00 | 0.03 | 0.03 | 69 | 1013.8 |
| 20260903011053 | 28 | 243 | 1.6 | 3.2 | 0.00 | 0.03 | 0.03 | 68 | 1013.8 |
| 20260903010553 | 28 | 260 | 1.6 | 8.0 | 0.00 | 0.03 | 0.03 | 68 | 1013.8 |
| 20260903010107 | 28 | 269 | 1.6 | 9.7 | 0.00 | 0.03 | 0.03 | 68 | 1013.9 |
| 20260903005555 | 29 | 229 | 8.0 | 11.3 | 0.00 | 0.03 | 0.03 | 67 | 1013.9 |
| 20260903005052 | 29 | 198 | 6.4 | 17.7 | 0.00 | 0.03 | 0.03 | 66 | 1013.9 |
| 20260903004602 | 30 | 210 | 8.0 | 17.7 | 0.00 | 0.03 | 0.03 | 64 | 1013.9 |
| 20260903004056 | 30 | 217 | 12.9 | 17.7 | 0.00 | 0.03 | 0.03 | 64 | 1014.0 |
| 20260903003557 | 30 | 236 | 12.9 | 16.1 | 0.00 | 0.03 | 0.03 | 62 | 1014.0 |
| 20260903003102 | 31 | 242 | 8.0 | 14.5 | 0.00 | 0.03 | 0.03 | 59 | 1013.9 |
| 20260903002556 | 31 | 191 | 11.3 | 14.5 | 0.00 | 0.03 | 0.03 | 58 | 1014.0 |
| 20260903002056 | 31 | 210 | 9.7 | 11.3 | 0.00 | 0.03 | 0.03 | 56 | 1013.9 |
| 20260903001608 | 31 | 154 | 6.4 | 8.0 | 0.00 | 0.03 | 0.03 | 56 | 1013.9 |
| 20260903001055 | 31 | 191 | 3.2 | 9.7 | 0.00 | 0.03 | 0.03 | 56 | 1013.9 |
| 20260903000556 | 31 | 152 | 4.8 | 9.7 | 0.00 | 0.03 | 0.03 | 57 | 1013.9 |
| 20260903000105 | 31 | 139 | 4.8 | 9.7 | 0.00 | 0.03 | 0.03 | 55 | 1013.9 |
| 20260902235553 | 31 | 169 | 6.4 | 12.9 | 0.00 | 0.03 | 0.03 | 55 | 1013.9 |
| 20260902235053 | 31 | 165 | 8.0 | 12.9 | 0.00 | 0.03 | 0.03 | 56 | 1013.8 |
| 20260902234608 | 31 | 212 | 11.3 | 14.5 | 0.00 | 0.03 | 0.03 | 57 | 1013.8 |
| 20260902234055 | 31 | 233 | 11.3 | 19.3 | 0.00 | 0.03 | 0.03 | 57 | 1013.7 |
| 20260902233559 | 31 | 224 | 11.3 | 24.1 | 0.00 | 0.03 | 0.03 | 57 | 1013.9 |
| 20260902233104 | 31 | 237 | 17.7 | 24.1 | 0.00 | 0.03 | 0.03 | 57 | 1013.9 |
| 20260902232555 | 31 | 236 | 14.5 | 20.9 | 0.00 | 0.03 | 0.03 | 57 | 1013.7 |
| 20260902232056 | 31 | 235 | 16.1 | 30.6 | 0.00 | 0.03 | 0.03 | 57 | 1013.6 |
| 20260902231603 | 31 | 214 | 19.3 | 37.0 | 0.00 | 0.03 | 0.03 | 57 | 1013.6 |
| 20260902231058 | 32 | 207 | 24.1 | 37.0 | 0.00 | 0.03 | 0.03 | 56 | 1013.9 |
| 20260902230555 | 32 | 209 | 24.1 | 33.8 | 0.00 | 0.03 | 0.03 | 54 | 1013.8 |
| 20260902230115 | 33 | 216 | 25.7 | 33.8 | 0.00 | 0.03 | 0.03 | 52 | 1013.8 |
| 20260902225556 | 33 | 189 | 14.5 | 19.3 | 0.00 | 0.03 | 0.03 | 51 | 1013.8 |
| 20260902225058 | 33 | 233 | 9.7 | 17.7 | 0.00 | 0.03 | 0.03 | 49 | 1013.6 |
| 20260902224601 | 33 | 239 | 9.7 | 17.7 | 0.00 | 0.03 | 0.03 | 50 | 1013.6 |
| 20260902224052 | 33 | 247 | 8.0 | 12.9 | 0.00 | 0.03 | 0.03 | 50 | 1013.6 |
| 20260902223552 | 33 | 269 | 6.4 | 14.5 | 0.00 | 0.03 | 0.03 | 51 | 1013.5 |
| 20260902223118 | 33 | 271 | 8.0 | 22.5 | 0.00 | 0.03 | 0.03 | 51 | 1013.6 |
| 20260902222557 | 33 | 299 | 8.0 | 22.5 | 0.00 | 0.03 | 0.03 | 50 | 1013.5 |
| 20260902222055 | 34 | 264 | 6.4 | 19.3 | 0.00 | 0.03 | 0.03 | 49 | 1013.5 |
| 20260902221559 | 35 | 295 | 8.0 | 14.5 | 0.00 | 0.03 | 0.03 | 47 | 1013.5 |
| 20260902221059 | 35 | 331 | 6.4 | 14.5 | 0.00 | 0.03 | 0.03 | 46 | 1013.5 |
| 20260902220557 | 35 | 299 | 6.4 | 11.3 | 0.00 | 0.03 | 0.03 | 45 | 1013.6 |
| 20260902220111 | 36 | 267 | 6.4 | 11.3 | 0.00 | 0.03 | 0.03 | 42 | 1013.5 |
| 20260902215552 | 36 | 285 | 6.4 | 14.5 | 0.00 | 0.03 | 0.03 | 41 | 1013.6 |
| 20260902215056 | 36 | 225 | 6.4 | 17.7 | 0.00 | 0.03 | 0.03 | 41 | 1013.6 |
| 20260902214601 | 36 | 229 | 9.7 | 17.7 | 0.00 | 0.03 | 0.03 | 40 | 1013.6 |
| 20260902214056 | 37 | 252 | 4.8 | 9.7 | 0.00 | 0.03 | 0.03 | 39 | 1013.5 |
| 20260902213554 | 37 | 0 | 3.2 | 11.3 | 0.00 | 0.03 | 0.03 | 41 | 1013.7 |
| 20260902213111 | 36 | 109 | 1.6 | 11.3 | 0.00 | 0.03 | 0.03 | 42 | 1013.7 |
| 20260902212556 | 36 | 110 | 6.4 | 12.9 | 0.00 | 0.03 | 0.03 | 41 | 1013.9 |
| 20260902212056 | 37 | 150 | 6.4 | 14.5 | 0.00 | 0.03 | 0.03 | 40 | 1013.8 |
| 20260902211608 | 37 | 128 | 4.8 | 14.5 | 0.00 | 0.03 | 0.03 | 39 | 1013.8 |
| 20260902211055 | 37 | 119 | 8.0 | 14.5 | 0.00 | 0.03 | 0.03 | 39 | 1013.8 |
| 20260902210555 | 37 | 78 | 3.2 | 8.0 | 0.00 | 0.03 | 0.03 | 40 | 1013.8 |
| 20260902210103 | 38 | 124 | 3.2 | 11.3 | 0.00 | 0.03 | 0.03 | 39 | 1013.8 |
| 20260902205557 | 37 | 234 | 3.2 | 16.1 | 0.00 | 0.03 | 0.03 | 40 | 1013.9 |
| 20260902205059 | 37 | 102 | 6.4 | 16.1 | 0.00 | 0.03 | 0.03 | 41 | 1014.0 |
| 20260902204605 | 36 | 134 | 9.7 | 16.1 | 0.00 | 0.03 | 0.03 | 41 | 1014.1 |
| 20260902204057 | 37 | 123 | 6.4 | 17.7 | 0.00 | 0.03 | 0.03 | 42 | 1014.0 |
| 20260902203555 | 36 | 155 | 6.4 | 17.7 | 0.00 | 0.03 | 0.03 | 41 | 1014.0 |
| 20260902203058 | 37 | 192 | 11.3 | 17.7 | 0.00 | 0.03 | 0.03 | 41 | 1014.1 |
| 20260902202556 | 37 | 214 | 9.7 | 16.1 | 0.00 | 0.03 | 0.03 | 41 | 1014.2 |
| 20260902202055 | 37 | 162 | 3.2 | 14.5 | 0.00 | 0.03 | 0.03 | 39 | 1014.3 |
| 20260902201603 | 37 | 246 | 9.7 | 17.7 | 0.00 | 0.03 | 0.03 | 41 | 1014.3 |
| 20260902201055 | 37 | 155 | 9.7 | 17.7 | 0.00 | 0.03 | 0.03 | 42 | 1014.2 |
| 20260902200555 | 36 | 164 | 4.8 | 16.1 | 0.00 | 0.03 | 0.03 | 41 | 1014.4 |
| 20260902200105 | 36 | 20 | 4.8 | 17.7 | 0.00 | 0.03 | 0.03 | 42 | 1014.4 |
| 20260902195556 | 36 | 85 | 4.8 | 17.7 | 0.00 | 0.03 | 0.03 | 41 | 1014.6 |
| 20260902195055 | 36 | 116 | 6.4 | 19.3 | 0.00 | 0.03 | 0.03 | 43 | 1014.4 |
| 20260902194605 | 36 | 219 | 6.4 | 19.3 | 0.00 | 0.03 | 0.03 | 43 | 1014.7 |
| 20260902194053 | 35 | 129 | 12.9 | 19.3 | 0.00 | 0.03 | 0.03 | 45 | 1014.8 |
| 20260902193556 | 35 | 165 | 8.0 | 16.1 | 0.00 | 0.03 | 0.03 | 48 | 1014.9 |
| 20260902193128 | 35 | 132 | 6.4 | 12.9 | 0.00 | 0.03 | 0.03 | 44 | 1014.9 |
| 20260902192552 | 35 | 122 | 4.8 | 11.3 | 0.00 | 0.03 | 0.03 | 45 | 1014.9 |
| 20260902192101 | 35 | 138 | 6.4 | 14.5 | 0.00 | 0.03 | 0.03 | 45 | 1015.1 |
| 20260902191605 | 35 | 133 | 8.0 | 14.5 | 0.00 | 0.03 | 0.03 | 47 | 1015.2 |
| 20260902191057 | 35 | 243 | 4.8 | 11.3 | 0.00 | 0.03 | 0.03 | 45 | 1015.2 |
| 20260902190555 | 35 | 170 | 4.8 | 14.5 | 0.00 | 0.03 | 0.03 | 46 | 1015.3 |
| 20260902190108 | 36 | 90 | 6.4 | 16.1 | 0.00 | 0.03 | 0.03 | 46 | 1015.4 |
| 20260902185556 | 36 | 92 | 6.4 | 16.1 | 0.00 | 0.03 | 0.03 | 46 | 1015.4 |
| 20260902185053 | 36 | 77 | 9.7 | 16.1 | 0.00 | 0.03 | 0.03 | 45 | 1015.6 |
| 20260902184658 | 36 | 118 | 8.0 | 16.1 | 0.00 | 0.03 | 0.03 | 45 | 1015.7 |
| 20260902184055 | 35 | 91 | 9.7 | 14.5 | 0.00 | 0.03 | 0.03 | 46 | 1015.8 |
| 20260902183557 | 35 | 108 | 8.0 | 14.5 | 0.00 | 0.03 | 0.03 | 47 | 1015.8 |
| 20260902183118 | 36 | 112 | 3.2 | 20.9 | 0.00 | 0.03 | 0.03 | 46 | 1015.9 |
| 20260902182556 | 36 | 216 | 8.0 | 20.9 | 0.00 | 0.03 | 0.03 | 45 | 1016.0 |
| 20260902182058 | 36 | 160 | 9.7 | 20.9 | 0.00 | 0.03 | 0.03 | 45 | 1016.1 |
| 20260902181602 | 35 | 140 | 8.0 | 16.1 | 0.00 | 0.03 | 0.03 | 46 | 1016.0 |
| 20260902181055 | 35 | 95 | 6.4 | 14.5 | 0.00 | 0.03 | 0.03 | 46 | 1016.1 |
| 20260902180556 | 35 | 108 | 9.7 | 16.1 | 0.00 | 0.03 | 0.03 | 46 | 1016.3 |
| 20260902180105 | 35 | 120 | 8.0 | 16.1 | 0.00 | 0.03 | 0.03 | 46 | 1016.4 |
| 20260902175555 | 35 | 0 | 0.0 | 14.5 | 0.00 | 0.03 | 0.03 | 49 | 1016.5 |
| 20260902175058 | 34 | 85 | 6.4 | 14.5 | 0.00 | 0.03 | 0.03 | 50 | 1016.5 |
| 20260902174603 | 35 | 72 | 6.4 | 16.1 | 0.00 | 0.03 | 0.03 | 48 | 1016.5 |
| 20260902174056 | 34 | 98 | 4.8 | 16.1 | 0.00 | 0.03 | 0.03 | 49 | 1016.5 |
| 20260902173556 | 35 | 79 | 4.8 | 17.7 | 0.00 | 0.03 | 0.03 | 50 | 1016.7 |
| 20260902173102 | 35 | 86 | 9.7 | 17.7 | 0.00 | 0.03 | 0.03 | 48 | 1016.7 |
| 20260902172555 | 35 | 97 | 4.8 | 17.7 | 0.00 | 0.03 | 0.03 | 47 | 1016.6 |
| 20260902172057 | 35 | 136 | 11.3 | 17.7 | 0.00 | 0.03 | 0.03 | 47 | 1016.8 |
| 20260902171606 | 35 | 119 | 8.0 | 12.9 | 0.00 | 0.03 | 0.03 | 47 | 1017.0 |
| 20260902171057 | 34 | 91 | 3.2 | 14.5 | 0.00 | 0.03 | 0.03 | 50 | 1017.1 |
| 20260902170555 | 34 | 0 | 6.4 | 14.5 | 0.00 | 0.03 | 0.03 | 49 | 1017.1 |
| 20260902165556 | 35 | 149 | 1.6 | 6.4 | 0.00 | 0.03 | 0.03 | 48 | 1017.2 |
| 20260902165055 | 34 | 0 | 0.0 | 6.4 | 0.00 | 0.03 | 0.03 | 49 | 1017.2 |
| 20260902164607 | 34 | 8 | 3.2 | 12.9 | 0.00 | 0.03 | 0.03 | 49 | 1017.2 |
| 20260902164056 | 34 | 323 | 4.8 | 12.9 | 0.00 | 0.03 | 0.03 | 50 | 1017.5 |
| 20260902163556 | 33 | 82 | 6.4 | 14.5 | 0.00 | 0.03 | 0.03 | 50 | 1017.4 |
| 20260902163103 | 33 | 222 | 3.2 | 14.5 | 0.00 | 0.03 | 0.03 | 50 | 1017.4 |
| 20260902162555 | 33 | 287 | 6.4 | 12.9 | 0.00 | 0.03 | 0.03 | 50 | 1017.6 |
| 20260902162056 | 34 | 0 | 0.0 | 12.9 | 0.00 | 0.03 | 0.03 | 50 | 1017.7 |
| 20260902161606 | 34 | 121 | 8.0 | 12.9 | 0.00 | 0.03 | 0.03 | 51 | 1017.6 |
| 20260902161055 | 33 | 81 | 1.6 | 9.7 | 0.00 | 0.03 | 0.03 | 52 | 1017.8 |
| 20260902160555 | 33 | 70 | 3.2 | 9.7 | 0.00 | 0.03 | 0.03 | 51 | 1017.7 |
| 20260902155556 | 33 | 150 | 4.8 | 9.7 | 0.00 | 0.03 | 0.03 | 52 | 1017.8 |
| 20260902155055 | 33 | 0 | 3.2 | 6.4 | 0.00 | 0.03 | 0.03 | 54 | 1017.9 |
| 20260902154603 | 33 | 93 | 1.6 | 12.9 | 0.00 | 0.03 | 0.03 | 54 | 1017.9 |
| 20260902154055 | 33 | 78 | 4.8 | 12.9 | 0.00 | 0.03 | 0.03 | 55 | 1017.9 |
| 20260902153555 | 32 | 100 | 1.6 | 12.9 | 0.00 | 0.03 | 0.03 | 55 | 1017.8 |
| 20260902153107 | 32 | 0 | 4.8 | 12.9 | 0.00 | 0.03 | 0.03 | 55 | 1017.9 |
| 20260902152556 | 32 | 319 | 6.4 | 9.7 | 0.00 | 0.03 | 0.03 | 55 | 1017.7 |
| 20260902152054 | 32 | 351 | 4.8 | 8.0 | 0.00 | 0.03 | 0.03 | 55 | 1017.7 |
| 20260902151605 | 32 | 303 | 1.6 | 8.0 | 0.00 | 0.03 | 0.03 | 55 | 1017.8 |
| 20260902151056 | 32 | 209 | 0.0 | 16.1 | 0.00 | 0.03 | 0.03 | 56 | 1017.8 |
| 20260902150556 | 31 | 281 | 3.2 | 16.1 | 0.00 | 0.03 | 0.03 | 57 | 1017.8 |
| 20260902145556 | 31 | 235 | 4.8 | 11.3 | 0.00 | 0.03 | 0.03 | 57 | 1017.8 |
| 20260902145055 | 31 | 0 | 3.2 | 11.3 | 0.00 | 0.03 | 0.03 | 58 | 1017.8 |
| 20260902144607 | 31 | 309 | 6.4 | 9.7 | 0.00 | 0.03 | 0.03 | 59 | 1017.7 |
| 20260902144055 | 31 | 0 | 3.2 | 14.5 | 0.00 | 0.03 | 0.03 | 60 | 1017.8 |
| 20260902143555 | 30 | 212 | 6.4 | 14.5 | 0.00 | 0.03 | 0.03 | 61 | 1017.9 |
| 20260902143104 | 30 | 331 | 4.8 | 11.3 | 0.00 | 0.03 | 0.03 | 61 | 1017.8 |
| 20260902142555 | 30 | 304 | 4.8 | 14.5 | 0.00 | 0.03 | 0.03 | 61 | 1017.7 |
| 20260902142052 | 30 | 309 | 3.2 | 14.5 | 0.00 | 0.03 | 0.03 | 61 | 1017.7 |
| 20260902141556 | 30 | 266 | 6.4 | 11.3 | 0.03 | 0.03 | 0.03 | 62 | 1017.8 |
| 20260902141057 | 30 | 271 | 6.4 | 11.3 | 0.03 | 0.03 | 0.03 | 62 | 1017.8 |
| 20260902140555 | 30 | 286 | 9.7 | 11.3 | 0.03 | 0.03 | 0.03 | 62 | 1017.9 |
| 20260902140104 | 30 | 308 | 3.2 | 12.9 | 0.03 | 0.03 | 0.03 | 64 | 1017.8 |
| 20260902135554 | 29 | 275 | 6.4 | 12.9 | 0.03 | 0.03 | 0.03 | 64 | 1017.8 |
| 20260902135056 | 29 | 304 | 8.0 | 11.3 | 0.03 | 0.03 | 0.03 | 64 | 1017.9 |
| 20260902134611 | 29 | 236 | 4.8 | 9.7 | 0.03 | 0.03 | 0.03 | 64 | 1017.9 |
| 20260902134056 | 29 | 264 | 4.8 | 8.0 | 0.03 | 0.03 | 0.03 | 65 | 1017.8 |
| 20260902133555 | 29 | 236 | 1.6 | 16.1 | 0.03 | 0.03 | 0.03 | 67 | 1017.8 |
| 20260902133101 | 28 | 0 | 0.0 | 16.1 | 0.03 | 0.03 | 0.03 | 68 | 1017.8 |
| 20260902132555 | 28 | 0 | 1.6 | 16.1 | 0.03 | 0.03 | 0.03 | 69 | 1017.9 |
| 20260902132055 | 28 | 0 | 0.0 | 9.7 | 0.03 | 0.03 | 0.03 | 73 | 1017.9 |
| 20260902131603 | 27 | 0 | 0.0 | 9.7 | 0.00 | 0.00 | 0.00 | 75 | 1017.9 |
| 20260902131056 | 27 | 191 | 0.0 | 12.9 | 0.00 | 0.00 | 0.00 | 44 | 1017.9 |
| 20260902130556 | 27 | 0 | 0.0 | 12.9 | 0.00 | 0.00 | 0.00 | 43 | 1017.8 |
| 20260902125555 | -17 | 0.0 | 0.0 | 0.00 | 0.00 | 0.00 | 1017.9 | ||
| 20260902125055 | -17 | 0.0 | 0.0 | 0.00 | 0.00 | 0.00 | 1017.8 | ||
| 20260902124616 | -17 | 0.0 | 0.0 | 0.00 | 0.00 | 0.00 | 1017.6 | ||
| 20260902124055 | -17 | 0.0 | 0.0 | 0.00 | 0.00 | 0.00 | 1017.6 | ||
| 20260902123556 | -17 | 0.0 | 0.0 | 0.00 | 0.00 | 0.00 | 1017.6 | ||
| 20260902123122 | -17 | 0.0 | 0.0 | 0.00 | 0.00 | 0.00 | 1017.6 | ||
| 20260902122557 | -17 | 0.0 | 0.0 | 0.00 | 0.00 | 0.00 | 1017.4 | ||
| 20260902122052 | -17 | 0.0 | 0.0 | 0.00 | 0.00 | 0.00 | 1017.4 | ||
| 20260902121608 | -17 | 0.0 | 0.0 | 0.00 | 0.00 | 0.00 | 1017.4 | ||
| 20260902121055 | -17 | 0.0 | 0.0 | 0.00 | 0.00 | 0.00 | 1017.2 | ||
| 20260902120555 | -17 | 0.0 | 0.0 | 0.00 | 0.00 | 0.00 | 1017.2 | ||
| 20260902120101 | -17 | 0.0 | 0.0 | 0.00 | 0.00 | 0.00 | 1017.2 | ||
| 20260902115556 | -17 | 0.0 | 0.0 | 0.00 | 0.00 | 0.00 | 1017.1 | ||
| 20260902115056 | -17 | 0.0 | 0.0 | 0.00 | 0.00 | 0.00 | 1017.0 | ||
| 20260902114606 | -17 | 0.0 | 0.0 | 0.00 | 0.00 | 0.00 | 1016.8 | ||
| 20260902114055 | -17 | 0.0 | 0.0 | 0.00 | 0.00 | 0.00 | 1016.9 | ||
| 20260902113555 | -17 | 0.0 | 0.0 | 0.00 | 0.00 | 0.00 | 1016.8 |